Weather History for KMTH - September, 2014

Change the Weather History Date:

Thursday, September 18, 2014

  Actual Average Record
Temperature  
Mean Temperature 82 °F 84 °F  
Max Temperature 89 °F 89 °F - ()
Min Temperature 75 °F 79 °F - ()
Degree Days  
Heating Degree Days 0 0  
Month to date heating degree days 0 0  
Since 1 July heating degree days 0 0  
Cooling Degree Days 17 19  
Month to date cooling degree days 336 345  
Year to date cooling degree days 4020 3731  
Growing Degree Days 32 (Base 50)    
Moisture  
Dew Point 75 °F    
Average Humidity 84    
Maximum Humidity 100    
Minimum Humidity 68    
Precipitation  
Precipitation 0.06 in 0.31 in - ()
Month to date precipitation 3.57 4.98  
Year to date precipitation 23.51 33.80  
Snow  
Snow 0.00 in - - ()
Month to date snowfall 0.0  
Since 1 July snowfall 0.0  
Since 1 September snowfall 0.0  
Snow Depth 0.00 in    
Sea Level Pressure  
Sea Level Pressure 29.92 in    
Wind  
Wind Speed 2 mph (SW)    
Max Wind Speed 13 mph    
Max Gust Speed 22 mph    
Visibility 9 miles    
Events Rain , Thunderstorm    
T = Trace of Precipitation, MM = Missing Value Source: NWS Daily Summary

Daily Weather History Graph

Daily Weather History Graph

Search for Another Location

Airport or City:

Trip Planner

Search our weather history database for the weather conditions in past years. The results will help you decide how hot, cold, wet, or windy it might be!

Date:

Astronomy

Sep. 18, 2014 Rise Set
Actual Time 7:11 AM EDT 7:24 PM EDT
Civil Twilight 6:48 AM EDT 7:47 PM EDT
Nautical Twilight 6:22 AM EDT 8:14 PM EDT
Astronomical Twilight 5:55 AM EDT 8:40 PM EDT
Moon 2:26 AM EDT (9/18) 3:52 PM EDT (9/18)
Length of Visible Light 12h 59m
Length of Day
12h 13m
Waning Crescent, 26% of the Moon is Illuminated
Sep 18
Waning Crescent
Sep 24
New
Oct 1
First Quarter
Oct 8
Full
Oct 15
Last Quarter

Hourly Weather History & Observations

Time (EDT) Temp. Heat Index Dew Point Humidity Pressure Visibility Wind Dir Wind Speed Gust Speed Precip Events Conditions
12:53 AM 75.0 °F - 73.9 °F 96% 29.95 in 10.0 mi Calm Calm - 0.00 in   Clear
1:53 AM 75.0 °F - 75.0 °F 100% 29.93 in 10.0 mi Calm Calm - N/A   Partly Cloudy
2:53 AM 77.0 °F - 77.0 °F 100% 29.91 in 10.0 mi Calm Calm - N/A   Partly Cloudy
3:53 AM 77.0 °F - 77.0 °F 100% 29.89 in 10.0 mi Calm Calm - N/A   Clear
5:53 AM 77.0 °F - 75.9 °F 96% 29.90 in 10.0 mi Calm Calm - N/A   Clear
6:53 AM 77.0 °F - 75.9 °F 96% 29.91 in 10.0 mi Calm Calm - N/A   Clear
7:53 AM 79.0 °F - 75.0 °F 88% 29.92 in 10.0 mi Calm Calm - N/A   Clear
8:53 AM 80.1 °F 85.4 °F 75.9 °F 87% 29.94 in 10.0 mi Calm Calm - N/A   Clear
9:53 AM 82.9 °F 90.8 °F 75.9 °F 79% 29.95 in 10.0 mi West 3.5 mph - N/A   Clear
10:53 AM 87.1 °F 97.3 °F 75.9 °F 69% 29.97 in 10.0 mi West 4.6 mph - N/A   Clear
11:53 AM 87.1 °F 96.3 °F 75.0 °F 67% 29.96 in 10.0 mi Variable 4.6 mph - N/A   Clear
12:53 PM 88.0 °F 98.5 °F 75.9 °F 67% 29.94 in 10.0 mi SW 4.6 mph - N/A   Clear
1:18 PM 89.1 °F 100.2 °F 75.9 °F 65% 29.93 in 10.0 mi Variable 3.5 mph - N/A Thunderstorm Thunderstorm
1:39 PM 86.0 °F 95.1 °F 75.0 °F 70% 29.94 in 10.0 mi WNW 9.2 mph - N/A Thunderstorm Clear
1:51 PM 82.4 °F 88.2 °F 73.4 °F 74% 29.93 in 10.0 mi WSW 9.2 mph - N/A Thunderstorm Thunderstorm
1:53 PM 81.0 °F 85.2 °F 72.0 °F 74% 29.94 in 10.0 mi SW 10.4 mph - N/A Thunderstorm Thunderstorm
2:07 PM 79.0 °F - 75.0 °F 88% 29.93 in 2.5 mi SSW 11.5 mph 19.6 mph 0.02 in Rain Light Rain
2:15 PM 75.0 °F - 73.0 °F 94% 29.93 in 1.5 mi South 8.1 mph 21.9 mph 0.05 in Rain Light Rain
2:19 PM 75.0 °F - 73.9 °F 96% 29.93 in 3.0 mi South 8.1 mph 21.9 mph 0.05 in Rain Light Rain
2:53 PM 77.0 °F - 75.9 °F 96% 29.93 in 9.0 mi South 6.9 mph - 0.05 in   Mostly Cloudy
3:53 PM 82.0 °F 89.4 °F 75.9 °F 82% 29.91 in 10.0 mi WSW 3.5 mph - N/A   Mostly Cloudy
4:25 PM 82.9 °F 91.8 °F 77.0 °F 82% 29.91 in 10.0 mi Calm Calm - N/A Thunderstorm Clear
4:40 PM 82.9 °F 91.8 °F 77.0 °F 82% 29.91 in 9.0 mi SW 5.8 mph - N/A   Clear
4:53 PM 82.9 °F 90.8 °F 75.9 °F 79% 29.91 in 10.0 mi Variable 5.8 mph - N/A   Clear
5:53 PM 82.9 °F 90.2 °F 75.0 °F 77% 29.89 in 10.0 mi South 3.5 mph - N/A   Clear
6:19 PM 82.0 °F 88.6 °F 75.0 °F 79% 29.90 in 10.0 mi Calm Calm - N/A Thunderstorm Thunderstorm
6:34 PM 82.0 °F 88.6 °F 75.0 °F 79% 29.90 in 10.0 mi Calm Calm - N/A   Clear
6:53 PM 81.0 °F 87.9 °F 77.0 °F 88% 29.90 in 9.0 mi WNW 3.5 mph - 0.01 in Rain Light Rain
7:53 PM 80.1 °F 85.4 °F 75.9 °F 87% 29.91 in 10.0 mi Calm Calm - 0.00 in   Clear
8:53 PM 80.1 °F 85.4 °F 75.9 °F 87% 29.92 in 10.0 mi Calm Calm - N/A   Clear
9:53 PM 79.0 °F - 73.9 °F 84% 29.94 in 10.0 mi Calm Calm - N/A   Clear
10:53 PM 79.0 °F - 75.9 °F 90% 29.94 in 10.0 mi Calm Calm - N/A   Clear
11:53 PM 78.1 °F - 75.9 °F 93% 29.94 in 10.0 mi Calm Calm - N/A   Clear